Flag for U.S.A. Weather past 2 weeks in New Orleans, Louisiana, U.S.A.

Now
46 °F

Overcast.


Feels Like: 37 °F
Forecast: 41 / 70 °F
Wind: 30 mph from North

Location: Lakefront Airport

Current Time: Mar 5, 2015 at 8:43:04 AM

Latest Report: Mar 5, 2015 at 7:53 AM


Visibility: 10 mi

Pressure: 30.16 "Hg

Humidity: 79%

Dew point: 40 °F

Location of New OrleansLocation

Historic Weather in New Orleans — Graph

°F

New Orleans temperature yesterday

Maximum temperature yesterday: 84 °F (at 1:53 PM)
Minimum temperature yesterday: 63 °F (at 3:53 AM)
Average temperature yesterday: 74 °F

Past Weeks' High & Low Weather Summary

 TemperatureHumidityPressure
High84 °F (Mar 4, 1:53 PM)93% (Mar 1, 9:53 PM)30.48 "Hg (Mar 1, 9:53 PM)
Low39 °F (Feb 27, 1:53 AM)24% (Feb 19, 2:53 PM)29.66 "Hg (Feb 25, 1:53 PM)
Average56 °F71%30.15 "Hg
* Reported Feb 18 6:53 AM — Mar 5 6:53 AM, New Orleans, Weather by CustomWeather, © 2015

Note: Actual official high and low records may vary slightly from our data, if they occured in-between our weather recording intervals... More about our weather records

Advertising

New Orleans weather history for previous 24 hours

 ConditionsComfort  
Time TempWeatherWind HumidityBarometerVisibility
6:53 AM
Thu, Mar 5
49 °FFog.32 mph86%30.09 "Hg6 mi
5:53 AM56 °FLow clouds.31 mph84%29.97 "Hg10 mi
4:53 AM71 °FPassing clouds.14 mph87%29.91 "Hg8 mi
3:53 AM72 °FClear.15 mph84%29.89 "Hg9 mi
2:53 AM73 °FClear.16 mph81%29.89 "Hg9 mi
2:01 AM73 °FPassing clouds.16 mph84%29.93 "Hg8 mi
12:53 AM73 °FPassing clouds.15 mph84%29.91 "Hg9 mi
11:53 PM
Wed, Mar 4
73 °FPassing clouds.14 mph84%29.92 "Hg9 mi
10:53 PM73 °FPassing clouds.12 mph84%29.93 "Hg9 mi
9:53 PM74 °FPassing clouds.12 mph85%29.92 "Hg8 mi
8:53 PM74 °FPassing clouds.10 mph85%29.92 "Hg8 mi
7:53 PM76 °FPassing clouds.12 mph77%29.90 "Hg10 mi
6:53 PM77 °FPassing clouds.14 mph71%29.89 "Hg10 mi
5:53 PM77 °FSunny.17 mph69%29.88 "Hg10 mi
4:53 PM81 °FScattered clouds.18 mph60%29.88 "Hg10 mi
3:53 PM82 °FBroken clouds.18 mph63%29.88 "Hg10 mi
2:53 PM82 °FScattered clouds.22 mph58%29.89 "Hg10 mi
1:53 PM84 °FScattered clouds.21 mph53%29.90 "Hg10 mi
12:53 PM80 °FScattered clouds.14 mph60%29.93 "Hg10 mi
11:53 AM78 °FCloudy.13 mph62%29.96 "Hg10 mi
10:53 AM80 °FScattered clouds.14 mph64%29.98 "Hg10 mi
9:53 AM78 °FPassing clouds.12 mph71%29.99 "Hg10 mi
8:53 AM75 °FBroken clouds.8 mph79%30.00 "Hg10 mi
Weather by CustomWeather, © 2015

See weather overviewHow to use our weather pages